Location: Newark
(5.8900°S, 42.6378°W)
Time: 00:20:21
(UTC+00:00)

deb Explorer IX - Pass Details

Date: 25 October 2019
Orbit: 546 x 1105 km, 38.8° (Epoch: 14 November)

Event Time Altitude Azimuth Distance (km) Brightness Sun altitude
Rises 21:56:02 0° 318° (NW) 3,782 ? -18.4°
Reaches altitude 10° 21:58:42 10° 321° (NW) 2,879 ? -19.1°
Maximum altitude 22:05:47 65° 42° (NE) 1,200 ? -20.8°
Enters shadow 22:09:52 28° 115° (ESE) 1,936 ? -21.8°
